SCP
0 0 0 0 0 0 0 0 0 0 0 0 0 0 0 0 -0 -0 -0 -0 -0 -0 -0 -0 -0 -0 -0 -0 -0 -0 -0 -0 0 0 0 0 0 0 0 0 0 0 0
0 0 0 0 0 0 0 0 0 0 0 0 0 0 0 0 -0 -0 -0 -0 -0 -0 -0 -0 -0 -0 0 -0 -0 -0 -0 0 0 -0 0 0 0 0 0 0 0 0 0
0 0 0 0 0 0 0 0 0 0 0 0 0 0 0 0 0 -0 -0 0 0 -0 -0 -0 -0 -0 0 0 0 0 0 0 0 0 0 0 0 0 0 0 0 0 0
0 0 0 0 0 0 0 0 0 0 0 0 0 0 0 0 0 0 0 0 0 0 -0 -0 0 0 0 0 0 0 0 0 0 0 0 0 0 0 0 0 0 0 0
0 0 0 0 0 0 0 0 0 0 0 0 0 0 0 0 0 0 0 0 0 0 0 0 0 0 0 0 0 0 0 0 0 0 0 0 0 0 0 0 0 0 0
0 0 0 0 0 0 0 0 0 0 0 0 0 0 0 0 0 0 0 0 0 0 0 0 0 0 0 0 0 0 0 0 0 0 0 0 0 0 0 0 0 0 0
0 0 0 0 0 0 0 0 0 0 0 0 0 0 0 0 0 0 0 0 0 0 0 0 0 0 0 0 0 0 0 0 0 0 0 0 0 0 0 0 0 0 0
-0 -0 0 0 0 0 0 0 0 0 0 0 0 0 0 0 0 0 0 0 0 0 0 0 0 0 0 0 0 0 0 0 0 0 0 0 0 0 0 0 0 0 0
-0 -0 -0 -0 0 0 0 0 0 0 0 0 0 0 0 0 0 0 0 0 0 0 0 0 0 0 0 0 0 0 0 0 0 0 0 0 0 0 0 0 0 0 0
-0 -0 -0 0 0 0 0 0 0 0 0 0 0 0 0 0 0 0 0 0 0 0 0 0 0 0 0 0 0 0 0 0 0 0 0 0 0 0 0 0 0 0 0
0 0 0 0 0 0 0 0 0 0 0 0 0 0 0 0 0 0 0 0 0 0 0 0 0 0 0 0 0 0 0 0 0 0 0 0 0 0 0 0 0 0 0
0 0 0 0 0 0 0 0 0 0 0 0 0 0 0 0 0 0 0 0 0 0 0 0 0 0 0 0 0 0 0 0 0 0 0 0 0 0 0 0 0 0 0
0 0 0 0 0 0 0 0 0 0 0 0 0 0 0 0 0 0 0 0 0 0 0 0 0 0 0 0 0 0 0 0 0 0 0 0 0 0 0 0 0 0 0
0 0 0 0 0 0 0 0 0 0 0 0 0 0 0 0 0 0 0 0 0 0 0 0 0 0 0 0 0 0 0 0 0 0 0 0 0 0 0 0 0 0 0
0 0 0 0 0 0 0 0 0 0 0 0 0 0 0 0 0 0 0 0 0 0 0 0 0 0 0 0 0 0 0 0 0 0 0 0 0 0 0 0 0 0 0
0 0 0 0 0 0 0 0 0 0 0 0 0 0 0 0 0 0 0 0 0 0 0 0 0 0 0 0 0 0 0 0 0 0 0 0 0 0 0 0 0 0 0
0 0 0 0 0 0 0 0 0 0 0 0 0 0 0 0 0 0 0 0 0 0 0 0 0 0 0 0 0 0 0 0 0 0 0 0 0 0 0 0 0 0 0
0 0 0 0 0 0 0 0 0 0 0 0 0 0 0 0 0 0 0 0 0 0 0 0 0 0 0 0 0 0 0 0 0 0 0 0 0 0 0 0 0 0 0
0 0 0 0 0 0 0 0 0 0 0 0 0 0 0 0 0 0 0 0 0 0 0 0 0 0 0 0 0 0 0 0 0 0 0 0 0 0 0 0 0 0 0
0 0 0 0 0 0 0 0 0 0 0 0 0 0 0 0 0 0 0 0 0 0 0 0 0 0 0 0 0 0 0 0 0 0 0 0 0 0 0 0 0 0 0
0 0 0 0 0 0 0 0 0 0 0 0 0 0 0 0 0 0 0 0 0 0 0 0 0 0 0 0 0 0 0 0 0 0 0 0 0 0 0 0 0 0 0
0 0 0 0 0 0 0 0 0 0 0 0 0 0 0 0 0 0 0 0 0 0 0 0 0 0 0 0 0 0 0 0 0 0 0 0 0 0 0 0 0 0 0
0 0 0 0 0 0 0 0 0 0 0 0 0 0 0 0 0 0 0 0 0 0 0 0 0 0 0 0 0 0 0 0 0 0 0 0 0 0 0 0 0 0 0
0 0 0 0 0 0 0 0 0 0 0 0 0 0 0 0 0 0 0 0 0 0 0 0 0 0 0 0 0 0 0 0 0 0 0 0 0 0 0 0 0 0 0
0 0 0 0 0 0 0 0 0 0 0 0 0 0 0 0 0 0 0 0 0 0 0 0 0 0 0 0 0 0 0 0 0 0 0 0 0 0 0 0 0 0 0
0 0 0 0 0 0 0 0 0 0 0 0 0 0 0 0 0 0 0 0 0 0 0 0 0 0 0 0 0 0 0 0 0 0 0 0 0 0 0 0 0 0 0
Wind_Speed_500mb
5 1 8 11 11 12 15 20 20 18 15 14 14 12 11 10 8 8 7 3 3 4 7 6 7 7 13 15 12 13 15 17 20 19 17 17 12 8 7 9 16 20 21
6 3 6 9 10 10 12 16 17 18 15 14 11 10 13 11 9 6 2 1 2 4 6 6 4 7 9 6 7 6 9 13 17 17 14 12 15 6 5 5 10 18 16
5 2 7 8 9 8 8 13 14 16 13 15 16 13 11 7 6 8 9 5 5 7 10 4 8 10 7 6 2 6 10 13 13 12 12 12 12 10 3 2 3 13 17
5 2 9 6 7 6 6 10 11 13 12 12 16 13 10 5 5 10 10 15 18 16 6 2 7 9 6 4 7 6 10 10 9 6 8 12 12 9 7 3 3 9 12
12 8 3 3 4 5 5 8 9 10 10 7 9 10 14 12 7 8 10 8 5 11 5 3 6 7 5 3 6 5 7 8 6 7 4 13 11 8 11 7 5 3 5
15 11 6 4 3 4 4 5 7 8 9 5 9 10 10 13 5 3 6 8 10 5 5 7 5 7 8 8 5 7 7 6 5 5 7 7 11 13 14 10 7 7 7
7 9 8 8 6 5 3 1 4 5 7 5 8 12 9 8 9 7 7 10 14 11 1 4 4 7 11 10 8 9 10 10 10 11 9 13 11 11 14 11 13 13 11
3 4 7 11 9 7 5 3 1 1 2 4 3 9 12 10 7 10 7 8 10 8 4 3 5 8 11 14 15 14 14 13 12 12 15 18 17 15 15 12 15 18 19
7 7 4 10 12 10 8 8 7 5 4 3 2 6 11 11 9 11 14 13 15 11 11 12 10 11 13 15 16 17 17 16 15 14 17 21 22 21 21 22 18 21 23
5 7 6 7 5 9 13 13 11 10 10 9 9 8 9 12 13 14 17 20 19 11 10 12 14 16 17 19 20 20 20 20 19 19 21 24 24 25 24 27 27 25 27
9 11 14 13 13 16 12 12 9 9 14 16 15 14 13 13 16 16 14 14 20 20 18 16 16 15 17 18 20 22 24 20 23 25 26 24 26 29 29 31 33 33 30
11 15 15 20 19 19 18 16 17 16 14 18 20 21 20 18 18 19 19 18 20 22 23 24 22 22 24 23 23 26 24 21 22 23 26 27 30 31 33 35 35 37 36
10 12 21 25 25 24 21 21 22 21 20 20 18 18 18 20 17 21 21 26 30 30 27 25 25 26 25 24 24 26 27 29 30 30 30 31 33 35 37 39 41 41 38
20 18 13 26 29 28 27 28 26 27 25 24 25 24 25 23 26 26 28 29 27 26 26 25 27 27 28 28 28 30 34 36 38 40 40 38 38 38 40 43 44 46 45
20 19 20 25 28 31 28 27 29 25 28 30 27 26 28 30 29 34 34 33 30 28 30 29 30 31 33 35 36 37 37 39 40 41 41 41 43 44 45 48 49 47 47
15 22 24 17 26 24 31 29 31 31 31 29 33 33 36 35 34 34 36 33 32 32 35 34 33 33 35 37 41 44 43 43 43 43 44 44 42 44 48 49 50 51 52
18 13 14 15 16 26 30 31 35 36 32 35 36 33 36 35 36 36 37 36 35 35 39 39 38 40 42 44 48 45 41 45 47 47 48 51 49 48 51 52 52 52 54
27 29 30 27 27 25 29 32 33 34 36 36 36 36 33 31 33 38 41 41 38 39 40 41 40 41 42 46 49 49 51 52 50 50 51 55 58 57 60 56 55 59 61
34 31 34 37 38 37 36 34 32 36 36 34 33 33 34 36 31 34 37 36 37 38 37 39 40 42 45 47 49 53 54 55 57 60 57 58 63 60 64 67 59 57 58
28 31 36 41 44 43 41 39 37 33 32 36 35 32 35 37 33 33 32 34 37 42 44 44 44 43 44 46 48 53 53 53 53 54 53 41 36 41 43 42 44 52 53
28 37 44 42 40 39 37 32 25 15 23 31 27 27 33 35 34 36 33 28 31 30 32 36 41 40 42 40 45 50 53 51 47 44 43 38 49 52 49 48 50 50 52
31 29 23 24 26 26 26 22 19 13 16 21 24 32 31 31 34 34 35 38 37 35 34 32 32 32 35 33 35 40 30 44 25 14 41 47 37 42 43 46 46 56 57
15 13 14 14 15 16 14 22 18 18 21 24 26 27 25 27 28 29 31 31 33 34 36 36 36 37 39 37 34 23 20 19 52 42 44 34 40 42 40 41 43 48 50
10 10 11 9 8 9 9 16 31 28 30 29 29 29 27 27 28 24 22 21 25 26 27 27 24 28 32 32 27 17 18 23 26 38 37 47 31 39 45 38 39 37 42
4 4 4 4 4 2 4 11 18 20 21 22 22 26 24 14 11 10 10 11 12 14 14 15 17 19 20 21 22 27 25 23 31 35 51 62 60 58 58 54 55 57 49
3 4 3 4 3 1 3 7 12 17 18 19 18 14 10 7 5 7 8 10 11 12 12 12 13 13 12 13 14 15 20 18 24 22 32 50 57 56 48 41 40 39 47
Wind_Direction_500mb
150 109 122 119 109 95 74 56 54 60 78 97 104 110 91 90 92 94 91 84 158 140 117 109 85 111 87 89 78 64 52 31 23 22 20 19 16 25 34 21 53 71 67
192 153 147 117 115 92 77 54 55 54 78 96 104 108 105 107 99 74 69 252 204 205 233 245 176 150 114 103 84 44 16 5 9 17 13 15 4 11 48 40 41 101 93
170 169 160 122 118 97 79 54 60 55 72 97 102 119 136 113 88 6 9 58 76 89 103 52 113 139 137 91 49 7 2 11 26 25 6 18 30 11 34 54 17 133 125
163 32 154 112 116 107 90 55 57 57 67 103 104 92 127 132 34 26 40 60 88 81 67 57 126 137 141 105 90 15 12 20 54 108 342 338 352 17 7 43 94 122 140
154 152 106 124 128 115 97 55 58 56 57 108 132 108 93 112 70 50 14 23 109 145 182 202 151 148 129 99 109 358 15 26 40 40 64 268 318 347 335 325 296 174 142
180 204 238 219 187 154 130 64 57 53 48 81 151 162 131 122 172 181 306 324 341 340 248 88 154 144 154 204 233 281 329 356 354 351 339 303 295 307 317 299 272 225 190
198 224 214 214 225 203 183 83 54 56 41 52 175 188 191 204 224 244 277 278 308 326 184 99 157 193 219 246 269 299 308 317 319 312 321 310 299 303 310 290 263 247 222
206 238 231 207 218 226 233 250 296 34 32 32 201 213 228 258 230 226 261 301 293 308 263 228 223 243 249 260 271 279 288 296 299 293 298 305 307 299 303 293 273 258 254
241 273 252 212 213 227 239 247 257 267 274 290 279 232 239 252 243 241 242 262 294 308 295 261 260 262 266 272 279 286 291 291 289 280 274 288 296 297 297 302 287 270 262
238 277 284 307 276 239 234 236 244 256 265 267 270 265 249 249 254 255 256 262 272 285 305 304 285 270 271 277 280 282 286 290 291 284 273 274 284 285 291 299 296 284 270
330 330 311 298 293 301 261 249 233 253 262 263 264 268 266 261 258 261 263 273 274 287 292 292 291 289 287 290 290 291 284 290 290 284 280 283 289 289 289 292 293 296 294
289 309 305 307 293 285 283 244 260 264 261 257 255 257 262 262 263 261 269 279 283 286 289 286 286 286 286 290 286 284 281 282 293 290 285 287 286 285 286 287 287 285 286
278 281 296 295 302 287 271 267 255 267 268 272 269 259 250 250 250 262 274 280 283 285 287 288 284 287 286 293 296 293 289 292 294 292 289 286 288 288 290 289 289 283 274
237 245 265 270 280 292 268 260 271 256 273 269 268 266 256 263 257 263 264 268 272 277 279 287 287 289 288 289 292 293 294 296 295 294 291 287 283 284 286 287 289 285 280
269 261 254 256 262 276 279 265 270 276 268 267 265 264 262 255 256 258 265 273 277 284 288 289 290 291 295 294 292 295 296 293 290 290 290 290 290 286 286 285 285 283 277
265 250 274 277 244 259 278 275 271 280 278 281 264 263 258 257 257 255 258 264 270 275 277 283 285 289 289 290 287 285 288 289 291 294 293 292 290 291 288 288 286 285 286
249 244 269 277 244 240 251 261 264 273 271 273 284 272 263 260 259 260 261 263 268 273 274 278 279 286 288 292 293 294 297 294 291 291 293 295 295 294 293 289 288 288 286
237 250 248 255 252 240 240 249 254 257 268 276 273 265 267 272 265 259 260 262 263 265 272 277 279 282 287 292 293 293 297 296 295 294 292 294 293 295 297 296 291 289 288
222 242 254 254 255 258 260 260 254 247 249 257 269 266 275 282 281 268 266 266 261 267 267 272 276 279 285 288 289 292 292 293 292 291 287 292 289 302 294 289 292 290 292
236 251 263 267 261 258 258 259 259 257 250 248 247 260 263 265 270 272 270 270 267 262 263 269 275 278 282 287 289 288 292 295 296 297 301 308 311 312 310 303 300 298 297
269 276 274 270 267 268 267 263 253 240 234 238 241 244 249 258 258 263 261 264 273 271 270 272 276 280 285 292 296 297 295 295 290 294 295 301 305 306 311 305 303 298 302
277 277 276 275 276 271 263 243 227 216 217 228 238 242 249 258 264 268 266 269 268 273 271 272 273 278 288 289 296 308 310 310 323 305 303 304 308 306 306 304 307 306 310
271 280 289 288 284 278 258 209 192 204 216 224 231 243 255 265 268 270 272 267 267 270 272 273 276 279 280 284 284 302 313 297 309 316 304 316 315 315 318 317 316 316 315
287 290 294 303 301 282 242 205 206 210 223 229 243 250 257 264 269 269 267 267 266 269 272 276 279 276 277 278 282 263 286 308 319 311 307 307 305 309 311 317 322 320 329
248 268 304 332 334 328 219 207 184 190 202 214 230 244 254 257 264 275 279 276 274 275 281 282 281 282 287 293 299 295 287 282 285 306 303 300 305 309 305 310 309 314 311
295 294 320 337 333 230 197 203 205 204 203 212 220 231 248 262 272 288 295 297 297 295 292 289 293 296 297 298 297 302 308 315 301 313 306 311 311 323 325 332 329 311 304
Wind_Speed_850mb
5 1 8 11 11 12 15 20 20 18 15 14 14 12 11 10 8 8 7 3 3 4 7 6 7 7 13 15 12 13 15 17 20 19 17 17 12 8 7 9 16 20 21
6 3 6 9 10 10 12 16 17 18 15 14 11 10 13 11 9 6 2 1 2 4 6 6 4 7 9 6 7 6 9 13 17 17 14 12 15 6 5 5 10 18 16
5 2 7 8 9 8 8 13 14 16 13 15 16 13 11 7 6 8 9 5 5 7 10 4 8 10 7 6 2 6 10 13 13 12 12 12 12 10 3 2 3 13 17
5 2 9 6 7 6 6 10 11 13 12 12 16 13 10 5 5 10 10 15 18 16 6 2 7 9 6 4 7 6 10 10 9 6 8 12 12 9 7 3 3 9 12
12 8 3 3 4 5 5 8 9 10 10 7 9 10 14 12 7 8 10 8 5 11 5 3 6 7 5 3 6 5 7 8 6 7 4 13 11 8 11 7 5 3 5
15 11 6 4 3 4 4 5 7 8 9 5 9 10 10 13 5 3 6 8 10 5 5 7 5 7 8 8 5 7 7 6 5 5 7 7 11 13 14 10 7 7 7
7 9 8 8 6 5 3 1 4 5 7 5 8 12 9 8 9 7 7 10 14 11 1 4 4 7 11 10 8 9 10 10 10 11 9 13 11 11 14 11 13 13 11
3 4 7 11 9 7 5 3 1 1 2 4 3 9 12 10 7 10 7 8 10 8 4 3 5 8 11 14 15 14 14 13 12 12 15 18 17 15 15 12 15 18 19
7 7 4 10 12 10 8 8 7 5 4 3 2 6 11 11 9 11 14 13 15 11 11 12 10 11 13 15 16 17 17 16 15 14 17 21 22 21 21 22 18 21 23
5 7 6 7 5 9 13 13 11 10 10 9 9 8 9 12 13 14 17 20 19 11 10 12 14 16 17 19 20 20 20 20 19 19 21 24 24 25 24 27 27 25 27
9 11 14 13 13 16 12 12 9 9 14 16 15 14 13 13 16 16 14 14 20 20 18 16 16 15 17 18 20 22 24 20 23 25 26 24 26 29 29 31 33 33 30
11 15 15 20 19 19 18 16 17 16 14 18 20 21 20 18 18 19 19 18 20 22 23 24 22 22 24 23 23 26 24 21 22 23 26 27 30 31 33 35 35 37 36
10 12 21 25 25 24 21 21 22 21 20 20 18 18 18 20 17 21 21 26 30 30 27 25 25 26 25 24 24 26 27 29 30 30 30 31 33 35 37 39 41 41 38
20 18 13 26 29 28 27 28 26 27 25 24 25 24 25 23 26 26 28 29 27 26 26 25 27 27 28 28 28 30 34 36 38 40 40 38 38 38 40 43 44 46 45
20 19 20 25 28 31 28 27 29 25 28 30 27 26 28 30 29 34 34 33 30 28 30 29 30 31 33 35 36 37 37 39 40 41 41 41 43 44 45 48 49 47 47
15 22 24 17 26 24 31 29 31 31 31 29 33 33 36 35 34 34 36 33 32 32 35 34 33 33 35 37 41 44 43 43 43 43 44 44 42 44 48 49 50 51 52
18 13 14 15 16 26 30 31 35 36 32 35 36 33 36 35 36 36 37 36 35 35 39 39 38 40 42 44 48 45 41 45 47 47 48 51 49 48 51 52 52 52 54
27 29 30 27 27 25 29 32 33 34 36 36 36 36 33 31 33 38 41 41 38 39 40 41 40 41 42 46 49 49 51 52 50 50 51 55 58 57 60 56 55 59 61
34 31 34 37 38 37 36 34 32 36 36 34 33 33 34 36 31 34 37 36 37 38 37 39 40 42 45 47 49 53 54 55 57 60 57 58 63 60 64 67 59 57 58
28 31 36 41 44 43 41 39 37 33 32 36 35 32 35 37 33 33 32 34 37 42 44 44 44 43 44 46 48 53 53 53 53 54 53 41 36 41 43 42 44 52 53
28 37 44 42 40 39 37 32 25 15 23 31 27 27 33 35 34 36 33 28 31 30 32 36 41 40 42 40 45 50 53 51 47 44 43 38 49 52 49 48 50 50 52
31 29 23 24 26 26 26 22 19 13 16 21 24 32 31 31 34 34 35 38 37 35 34 32 32 32 35 33 35 40 30 44 25 14 41 47 37 42 43 46 46 56 57
15 13 14 14 15 16 14 22 18 18 21 24 26 27 25 27 28 29 31 31 33 34 36 36 36 37 39 37 34 23 20 19 52 42 44 34 40 42 40 41 43 48 50
10 10 11 9 8 9 9 16 31 28 30 29 29 29 27 27 28 24 22 21 25 26 27 27 24 28 32 32 27 17 18 23 26 38 37 47 31 39 45 38 39 37 42
4 4 4 4 4 2 4 11 18 20 21 22 22 26 24 14 11 10 10 11 12 14 14 15 17 19 20 21 22 27 25 23 31 35 51 62 60 58 58 54 55 57 49
3 4 3 4 3 1 3 7 12 17 18 19 18 14 10 7 5 7 8 10 11 12 12 12 13 13 12 13 14 15 20 18 24 22 32 50 57 56 48 41 40 39 47
Wind_Direction_850mb
150 109 122 119 109 95 74 56 54 60 78 97 104 110 91 90 92 94 91 84 158 140 117 109 85 111 87 89 78 64 52 31 23 22 20 19 16 25 34 21 53 71 67
192 153 147 117 115 92 77 54 55 54 78 96 104 108 105 107 99 74 69 252 204 205 233 245 176 150 114 103 84 44 16 5 9 17 13 15 4 11 48 40 41 101 93
170 169 160 122 118 97 79 54 60 55 72 97 102 119 136 113 88 6 9 58 76 89 103 52 113 139 137 91 49 7 2 11 26 25 6 18 30 11 34 54 17 133 125
163 32 154 112 116 107 90 55 57 57 67 103 104 92 127 132 34 26 40 60 88 81 67 57 126 137 141 105 90 15 12 20 54 108 342 338 352 17 7 43 94 122 140
154 152 106 124 128 115 97 55 58 56 57 108 132 108 93 112 70 50 14 23 109 145 182 202 151 148 129 99 109 358 15 26 40 40 64 268 318 347 335 325 296 174 142
180 204 238 219 187 154 130 64 57 53 48 81 151 162 131 122 172 181 306 324 341 340 248 88 154 144 154 204 233 281 329 356 354 351 339 303 295 307 317 299 272 225 190
198 224 214 214 225 203 183 83 54 56 41 52 175 188 191 204 224 244 277 278 308 326 184 99 157 193 219 246 269 299 308 317 319 312 321 310 299 303 310 290 263 247 222
206 238 231 207 218 226 233 250 296 34 32 32 201 213 228 258 230 226 261 301 293 308 263 228 223 243 249 260 271 279 288 296 299 293 298 305 307 299 303 293 273 258 254
241 273 252 212 213 227 239 247 257 267 274 290 279 232 239 252 243 241 242 262 294 308 295 261 260 262 266 272 279 286 291 291 289 280 274 288 296 297 297 302 287 270 262
238 277 284 307 276 239 234 236 244 256 265 267 270 265 249 249 254 255 256 262 272 285 305 304 285 270 271 277 280 282 286 290 291 284 273 274 284 285 291 299 296 284 270
330 330 311 298 293 301 261 249 233 253 262 263 264 268 266 261 258 261 263 273 274 287 292 292 291 289 287 290 290 291 284 290 290 284 280 283 289 289 289 292 293 296 294
289 309 305 307 293 285 283 244 260 264 261 257 255 257 262 262 263 261 269 279 283 286 289 286 286 286 286 290 286 284 281 282 293 290 285 287 286 285 286 287 287 285 286
278 281 296 295 302 287 271 267 255 267 268 272 269 259 250 250 250 262 274 280 283 285 287 288 284 287 286 293 296 293 289 292 294 292 289 286 288 288 290 289 289 283 274
237 245 265 270 280 292 268 260 271 256 273 269 268 266 256 263 257 263 264 268 272 277 279 287 287 289 288 289 292 293 294 296 295 294 291 287 283 284 286 287 289 285 280
269 261 254 256 262 276 279 265 270 276 268 267 265 264 262 255 256 258 265 273 277 284 288 289 290 291 295 294 292 295 296 293 290 290 290 290 290 286 286 285 285 283 277
265 250 274 277 244 259 278 275 271 280 278 281 264 263 258 257 257 255 258 264 270 275 277 283 285 289 289 290 287 285 288 289 291 294 293 292 290 291 288 288 286 285 286
249 244 269 277 244 240 251 261 264 273 271 273 284 272 263 260 259 260 261 263 268 273 274 278 279 286 288 292 293 294 297 294 291 291 293 295 295 294 293 289 288 288 286
237 250 248 255 252 240 240 249 254 257 268 276 273 265 267 272 265 259 260 262 263 265 272 277 279 282 287 292 293 293 297 296 295 294 292 294 293 295 297 296 291 289 288
222 242 254 254 255 258 260 260 254 247 249 257 269 266 275 282 281 268 266 266 261 267 267 272 276 279 285 288 289 292 292 293 292 291 287 292 289 302 294 289 292 290 292
236 251 263 267 261 258 258 259 259 257 250 248 247 260 263 265 270 272 270 270 267 262 263 269 275 278 282 287 289 288 292 295 296 297 301 308 311 312 310 303 300 298 297
269 276 274 270 267 268 267 263 253 240 234 238 241 244 249 258 258 263 261 264 273 271 270 272 276 280 285 292 296 297 295 295 290 294 295 301 305 306 311 305 303 298 302
277 277 276 275 276 271 263 243 227 216 217 228 238 242 249 258 264 268 266 269 268 273 271 272 273 278 288 289 296 308 310 310 323 305 303 304 308 306 306 304 307 306 310
271 280 289 288 284 278 258 209 192 204 216 224 231 243 255 265 268 270 272 267 267 270 272 273 276 279 280 284 284 302 313 297 309 316 304 316 315 315 318 317 316 316 315
287 290 294 303 301 282 242 205 206 210 223 229 243 250 257 264 269 269 267 267 266 269 272 276 279 276 277 278 282 263 286 308 319 311 307 307 305 309 311 317 322 320 329
248 268 304 332 334 328 219 207 184 190 202 214 230 244 254 257 264 275 279 276 274 275 281 282 281 282 287 293 299 295 287 282 285 306 303 300 305 309 305 310 309 314 311
295 294 320 337 333 230 197 203 205 204 203 212 220 231 248 262 272 288 295 297 297 295 292 289 293 296 297 298 297 302 308 315 301 313 306 311 311 323 325 332 329 311 304